Location: Baia Mare
(47.6567°N, 23.5850°E)
Time: 11:40:21
(UTC+02:00)

ISS - Pass Details

Date: 07 February 2019
Orbit: 404 x 407 km, 51.6° (Epoch: 16 January)

Event Time Altitude Azimuth Distance (km) Brightness Sun altitude
Rises 19:26:03 0° 290° (WNW) 2,327 1.3 -18.9°
Reaches altitude 10° 19:28:19 10° 277° (W) 1,464 0.2 -19.3°
Maximum altitude 19:31:07 26° 218° (SW) 833 -1.9 -19.8°
Enters shadow 19:32:30 20° 179° (S) 1,018 -1.8 -20.0°
